This demonstration page uses our WeatherBlox Daily Observations layout. Learn more.

39.29038, -76.61219

Hourly Observations for February 12, 2020

Temp ( °F °C ) Dew Point ( °F °C ) Humidity (%) Winds ( mph kmh ) Pressure ( in mb ) Visibility ( mi km ) Precip ( " mm )
12:54 am 00:54 undefined 47 8.3 32 0 56 56 undefined N/A 30.06 1018 N/A 0 0
1:54 am 01:54 undefined 46 7.8 31 -0.6 56 56 undefined N/A 30.08 1019 N/A 0 0
2:54 am 02:54 undefined 45 7.2 26 -3.3 48 48 undefined N/A 30.06 1018 N/A 0 0
3:54 am 03:54 undefined 43 6.1 26 -3.3 51 51 undefined N/A 30.1 1019 N/A 0 0
4:54 am 04:54 undefined 43 6.1 26 -3.3 51 51 undefined N/A 30.12 1020 N/A 0 0
5:54 am 05:54 undefined 42 5.6 26 -3.3 53 53 undefined N/A 30.17 1022 N/A 0 0
6:54 am 06:54 undefined 42 5.6 26 -3.3 53 53 undefined N/A 30.19 1022 N/A 0 0
7:54 am 07:54 undefined 42 5.6 26 -3.3 53 53 undefined N/A 30.22 1024 N/A 0 0
8:54 am 08:54 undefined 43 6.1 26 -3.3 51 51 undefined N/A 30.24 1024 N/A 0 0
9:54 am 09:54 undefined 45 7.2 25 -3.9 46 46 undefined N/A 30.29 1026 N/A 0 0
10:54 am 10:54 undefined 47 8.3 26 -3.3 44 44 undefined N/A 30.3 1026 N/A 0 0
11:54 am 11:54 undefined 49 9.4 28 -2.2 44 44 undefined N/A 30.24 1024 N/A 0 0
12:54 pm 12:54 undefined 51 10.6 27 -2.8 39 39 undefined N/A 30.25 1024 N/A 0 0
1:54 pm 13:54 undefined 48 8.9 29 -1.7 48 48 undefined N/A 30.2 1023 N/A 0 0
2:54 pm 14:54 undefined 46 7.8 28 -2.2 50 50 undefined N/A 30.14 1021 N/A 0 0
3:54 pm 15:54 undefined 45 7.2 28 -2.2 52 52 undefined N/A 30.18 1022 N/A 0 0
4:54 pm 16:54 undefined 46 7.8 28 -2.2 50 50 undefined N/A 30.17 1022 N/A 0 0
5:54 pm 17:54 undefined 45 7.2 31 -0.6 58 58 undefined N/A 30.14 1021 N/A 0 0
6:54 pm 18:54 undefined 44 6.7 33 0.6 65 65 undefined N/A 30.13 1020 N/A 0 0
7:54 pm 19:54 undefined 41 5 37 2.8 86 86 undefined N/A 30.08 1019 N/A 0.05 1.27
8:54 pm 20:54 undefined 41 5 38 3.3 89 89 undefined N/A 30.08 1019 N/A 0.06 1.524
9:54 pm 21:54 undefined 41 5 38 3.3 89 89 undefined N/A 30.02 1017 N/A 0 0
10:54 pm 22:54 undefined 41 5 37 2.8 86 86 undefined N/A 29.99 1016 N/A 0 0
11:54 pm 23:54 undefined 40 4.4 37 2.8 89 89 undefined N/A 29.91 1013 N/A 0 0

Powered by AerisWeather